Powrót do katalogu

NAVSTAR 35

USA 96

AktywnyNawigacjaMEO
NORAD 22877·PAYLOAD·🇺🇸 United States

Wystrzelony Oct 26, 1993 z Cape Canaveral Space Force Station

Loading…

Następne Przeloty (najbliższe 24 godziny)

TLE

ŚwieżeSource: Space-Track

Epoka: Sep 14, 2026, 10:23 UTC

1 22877U 93068A   26257.43314708 -.00000109  00000-0  00000-0 0  9995
2 22877  55.3894 334.1873 0008982 144.2069 215.2531  1.88541125238135

Śledź NAVSTAR 35 w czasie rzeczywistym z AllMySat

Download on the App Store